{"data":{"norad_id":57735,"intl_designator":"2023-131D","name":"STARLINK-30371","alt_names":[],"object_type":"PAYLOAD","status":"ACTIVE","operator":null,"country":"US","launch_date":"2023-09-01","launch_site_code":"AFETR","launch_vehicle":null,"mission":null,"orbit_class":"UNKNOWN","rcs_meters":null,"size_class":null,"mass_kg":null,"dimensions":null,"purposes":["comms"],"wikipedia_slug":null,"has_3d_model":false,"image_url":null,"decayed_at":null,"tle_current":{"epoch":"2026-05-24T07:09:13.565088Z","epoch_age_seconds":138734,"freshness":"FRESH","line1":"1 57735U 23131D   26144.29807367  .00001874  00000+0  79552-4 0  9997","line2":"2 57735  43.0058 112.7862 0001165 272.7167  87.3551 15.26734096151392","mean_motion":15.26734096,"eccentricity":0.0001165,"inclination_deg":43.0058,"raan_deg":112.7862,"arg_perigee_deg":272.7167,"mean_anomaly_deg":87.3551,"bstar":7.9552e-5,"rev_number":15139,"period_min":94.318978253827,"perigee_km":484.78358295538,"apogee_km":486.38282976346,"semimajor_km":6863.7202063594,"source":"CELESTRAK","updated_at":"2026-05-25T13:38:18.397856Z"}}}